Regional Weather Roundup
Issued by NWS State College, PA

Home | Current Version | Previous Version | Graphics & Text | Print | Product List | Glossary On
Versions: 1 2 3 4 5 6 7 8 9 10 11 12 13 14 15 16 17 18 19 20 21 22 23 24 25 26 27 28 29 30 31 32 33 34 35 36 37 38 39 40 41 42 43 44 45 46 47 48 49 50
660
ASUS41 KCTP 301603
RWRCTP

REGIONAL WEATHER ROUNDUP
NATIONAL WEATHER SERVICE STATE COLLEGE PA
1200 PM EDT THU MAR 30 2017

Note: "fair" indicates few or no clouds below 12,000 feet with no
significant weather and/or obstructions to visibility.

* = STATION THAT DOES NOT REPORT PRECIPITATION /E.G. RAIN...SNOW...ETC/
    THUNDER OR FOG.

PAZ002>004-007>009-013>016-020>023-029>032-301700-
WESTERN PENNSYLVANIA

CITY           SKY/WX    TMP DP  RH WIND       PRES   REMARKS
ERIE           LGT RAIN  38  34  85 NE6       30.10R
MEADVILLE      RAIN      39  29  67 N7        30.07R
FRANKLIN*      CLOUDY    39  25  56 E14G22    30.03S
NEW CASTLE     LGT RAIN  47  35  63 E9G16     30.00R
BEAVER COUNTY  NOT AVBL
BUTLER*        CLOUDY    48  32  53 E16G23    29.98F
PITTSBURGH INT CLOUDY    50  34  54 SE17      29.95F
PITTSBURGH     LGT RAIN  49  33  54 E10       29.97F
INDIANA*       PTSUNNY   48  30  49 SE15G23   30.05F
LATROBE        PTSUNNY   50  32  50 SE14G22   30.00F
WASHINGTON CO* CLOUDY    48  37  66 SE9       29.95F
$$

PAZ004>006-010>012-017>019-024>028-033>037-041-042-045-046-049>053-301700-
CENTRAL PENNSYLVANIA

CITY           SKY/WX    TMP DP  RH WIND       PRES   REMARKS
BRADFORD       FRZ RAIN  32  29  88 E8        30.11R FOG
DUBOIS         CLOUDY    38  25  59 E12       30.05F
CLEARFIELD     CLOUDY    42  25  50 E9        30.11F
JOHNSTOWN      MOSUNNY   42  29  59 SE15G22   30.04F
ALTOONA        PTSUNNY   45  29  53 SE9       30.12F
STATE COLLEGE  CLOUDY    41  25  52 E12       30.16F
WILLIAMSPORT   CLOUDY    42  24  49 VRB6      30.21F
SELINSGROVE    CLOUDY    43  25  49 CALM      30.21F
FT INDIANTOWN  CLOUDY    45  26  47 SE5       30.22F
CAPITAL CITY   CLOUDY    47  26  44 E10       30.22F
HARRISBURG     CLOUDY    46  28  49 SE5       30.22F
YORK           CLOUDY    43  29  57 SE8       30.22F
$$

PAZ038>040-043-044-047-048-054-055-060>062-067>071-301700-
EASTERN PENNSYLVANIA

CITY           SKY/WX    TMP DP  RH WIND       PRES   REMARKS
SCRANTON       CLOUDY    43  25  49 NW5       30.18F
MOUNT POCONO   CLOUDY    41  21  44 CALM      30.15F
ALLENTOWN      CLOUDY    46  21  37 CALM      30.22F
QUAKERTOWN*    PTSUNNY   45  25  45 SW3       30.23F
READING        CLOUDY    45  26  47 CALM      30.23F
LANCASTER      CLOUDY    47  28  47 E5        30.23F
COATESVILLE    CLOUDY    45  23  42 VRB3      30.24F
POTTSTOWN      CLOUDY    43  23  45 SW3       30.26F
BLUE BELL      CLOUDY    43  25  49 CALM      30.24F
DOYLESTOWN     CLOUDY    45  24  43 VRB3      30.22F
WILLOW GROVE   NOT AVBL
NORTH PHILA    CLOUDY    46  23  40 SE5       30.26F
PHILADELPHIA   CLOUDY    47  23  38 E6        30.26F
$$




USA.gov is the U.S. government's official web portal to all federal, state and local government web resources and services.